Location: C.E.K. Mees Observatory
(42.7003°N, 77.4088°W)
Time: 08:39:12
(UTC-04:00)

Envisat - Pass Details

Date: 10 October 2017
Orbit: 764 x 766 km, 98.2° (Epoch: 19 October)

Event Time Altitude Azimuth Distance (km) Brightness Sun altitude
Exits shadow 21:07:41 72° 279° (W) 804 3.1 -28.6°
Drops below altitude 10° 21:12:35 10° 343° (NNW) 2,309 5.9 -29.4°
Sets 21:14:55 0° 346° (NNW) 3,240 6.7 -29.8°
